Flag for U.S.A. Weather past 2 weeks in Buffalo, New York, U.S.A.

Now
48 °F

Partly sunny.


Feels Like: 40 °F
Forecast: 41 / 50 °F
Wind: 23 mph from Southwest

Location: Greater Buffalo International Airport

Current Time: Apr 21, 2015 at 11:47:01 AM

Latest Report: Apr 21, 2015 at 10:54 AM


Visibility: 10 mi

Pressure: 29.62 "Hg

Humidity: 54%

Dew point: 32 °F

Location of BuffaloLocation

Historic Weather in Buffalo — Graph

°F

Buffalo temperature yesterday

Maximum temperature yesterday: 69 °F (at 1:54 PM)
Minimum temperature yesterday: 44 °F (at 11:54 PM)
Average temperature yesterday: 55 °F

Past Weeks' High & Low Weather Summary

 TemperatureHumidityPressure
High77 °F (Apr 13, 1:54 PM)97% (Apr 9, 7:04 AM)30.41 "Hg (Apr 9, 7:04 AM)
Low32 °F (Apr 12, 1:54 AM)16% (Apr 16, 2:54 PM)29.39 "Hg (Apr 20, 3:54 PM)
Average49 °F66%30.05 "Hg
* Reported Apr 6 9:54 AM — Apr 21 9:54 AM, Buffalo, Weather by CustomWeather, © 2015

Note: Actual official high and low records may vary slightly from our data, if they occured in-between our weather recording intervals... More about our weather records

Advertising

Buffalo weather history for previous 24 hours

 ConditionsComfort  
Time TempWeatherWind HumidityBarometerVisibility
9:54 AM
Tue, Apr 21
47 °FPartly sunny.31 mph59%29.62 "Hg10 mi
8:54 AM43 °FPartly sunny.18 mph71%29.62 "Hg10 mi
7:54 AM40 °FLight rain. Mostly cloudy.14 mph83%29.62 "Hg10 mi
6:54 AM41 °FLight rain. Mostly cloudy.21 mph80%29.60 "Hg10 mi
5:54 AM42 °FOvercast.15 mph79%29.59 "Hg10 mi
4:54 AM42 °FOvercast.14 mph79%29.59 "Hg10 mi
3:54 AM43 °FLow clouds.12 mph82%29.59 "Hg10 mi
3:01 AM42 °FLow clouds.13 mph85%29.59 "Hg10 mi
1:54 AM43 °FLight rain. Overcast.15 mph86%29.60 "Hg10 mi
12:54 AM45 °FPassing clouds.16 mph80%29.59 "Hg10 mi
11:54 PM
Mon, Apr 20
44 °FPassing clouds.15 mph82%29.55 "Hg10 mi
10:54 PM48 °FPassing clouds.18 mph77%29.53 "Hg10 mi
9:54 PM49 °FPassing clouds.16 mph77%29.52 "Hg10 mi
8:54 PM49 °FBroken clouds.18 mph84%29.52 "Hg10 mi
7:54 PM51 °FLight rain. Mostly cloudy.13 mph86%29.51 "Hg8 mi
6:54 PM56 °FLight rain. Partly sunny.16 mph84%29.46 "Hg10 mi
5:54 PM58 °FLight rain. Partly sunny.12 mph81%29.45 "Hg6 mi
4:54 PM61 °FLight rain. Broken clouds.22 mph78%29.40 "Hg10 mi
3:54 PM60 °FThunderstorms. Partly sunny.13 mph83%29.39 "Hg5 mi
2:54 PM68 °FLight rain. Mostly cloudy.20 mph57%29.40 "Hg10 mi
1:54 PM69 °FBroken clouds.16 mph55%29.41 "Hg10 mi
12:54 PM66 °FPartly sunny.17 mph59%29.44 "Hg10 mi
11:54 AM64 °FPartly sunny.17 mph63%29.46 "Hg10 mi
Weather by CustomWeather, © 2015

See weather overviewHow to use our weather pages